Other Surface Observations
Issued by NWS Tucson, AZ

Home | Current Version | Previous Version | Text Only | Print | Product List | Glossary On
Versions: 1 2 3 4 5 6 7 8 9 10 11 12 13 14 15 16 17 18 19 20 21 22 23 24 25 26 27 28 29 30 31 32 33 34 35 36 37 38 39 40 41 42 43 44 45 46 47 48 49 50
443
SXUS55 KTWC 220015
OSOTWC

WEATHER ROUNDUP FOR SOUTHEAST ARIZONA
NATIONAL WEATHER SERVICE TUCSON AZ
515 PM MST THU SEP 21 2017

AZZ504>506-514-220115-
LOCATION       SKY/WX    TMP DP  RH WIND       PRES   REMARKS
TUCSON         MOSUNNY   94  42  16 SW13G21   29.78F
DAVIS-MONTHAN  MOSUNNY   93  43  17 SW10G25   29.77S
CHILDRENS PARK N/A      N/A N/A  17 SW12              PIMA CO DEQ
ALVERNON/22ND  N/A       95 N/A N/A SW8               PIMA CO DEQ
CHERRY/GLENN   N/A      N/A N/A N/A N/A               PIMA CO DEQ
TANGERINE      N/A       93 N/A N/A SW11              PIMA CO DEQ
CONTL RANCH    N/A       96  43  16 S8                PIMA CO DEQ
GRANT/1ST      N/A       94  43  17 SW9               PIMA CO DEQ
CRAYCROFT/22ND N/A       93  45  19 SW9               PIMA CO DEQ
GOLFLINKS/KOLB N/A       94  44  18 SW12              PIMA CO DEQ
AJO/12TH       N/A       96  44  17 SW12              PIMA CO DEQ
FAIRGROUNDS    N/A       93 N/A N/A SW18              PIMA CO DEQ
SAGUARO        N/A       96  46  18 SW7G17            *SABINO CYN
SAN CARLOS     N/A       93  45  19 SW14G25           *SAN CARLOS
GREEN VALLEY   N/A       93  43  18 SW14              PIMA CO DEQ
HORSE CAMP CYN N/A       86  41  21 SW17G31           *ARAVAIPA CYN
RINCON MTNS    N/A       69  39  33 SW5G18            *NR MANNING CAMP
$$

AZZ509>511-220115-
LOCATION       SKY/WX    TMP DP  RH WIND       PRES   REMARKS
SAFFORD        CLOUDY    93  39  15 SW12      29.76F
STRAY HORSE    N/A       71  40  32 SW7G19            *
TRAIL CABIN    N/A       80  41  25 SW7G17            *N OF GRANVILLE
BLACK HILLS    NOT AVBL
DRY LAKE       N/A       70  43  37 SW6G16            *NATANES MTNS
NOON CREEK     N/A       84  39  20 E7G15             *PINALENO MTNS
COLUMBINE      N/A       60  39  45 SW8G21            *PINALENO MTNS
GUTHRIE        N/A       79  38  23 SW17G32           *SW OF GUTHRIE
$$

AZZ502-503-513-220115-
LOCATION       SKY/WX    TMP DP  RH WIND       PRES   REMARKS
NOGALES        SUNNY     87  39  18 S14G30    29.89F
SELLS          N/A       92  42  18 N13G22            *
SASABE         N/A       89  44  21 SW15G23           *ALTAR VLY
HOPKINS        N/A       73  38  28 W9G24             *SANTA RITA MTNS
CARR CYN       N/A       79  39  24 W3G11             *W OF HEREFORD
$$

AZZ507-508-512-220115-
LOCATION       SKY/WX    TMP DP  RH WIND       PRES   REMARKS
SIERRA VISTA   SUNNY     84  39  20 SW15G24   29.95F
DOUGLAS        SUNNY     88  36  15 SW22G29   29.90S
EMPIRE MTNS    NOT AVBL
MULESHOE RANCH N/A       87  38  18 W12G27            *PRESERVE
HEADQUARTERS   N/A       85  34  16 S4G23             *CHIRICAHUA MTNS
$$

.............................NOTES.............................
THIS IS AN AUTOMATED COLLECTIVE WITH MINIMAL QUALITY CONTROL.
PIMA CO DEQ SITES HAVE NONSTANDARD WIND SENSOR HEIGHTS.
PIMA CO DEQ SITES DO NOT REPORT WIND GUSTS.
* INDICATES WIND SENSORS LOCATED AT 20 FEET INSTEAD OF 33 FEET.
..............................KEY..............................
SKY/WX - SKY CONDITION/WEATHER
TMP    - TEMPERATURE IN FAHRENHEIT
DP     - DEWPOINT IN FAHRENHEIT
RH     - RELATIVE HUMIDITY IN PERCENT
WIND   - DIRECTION AND SPEED IN MILES PER HOUR (MPH)
VRB    - VARIABLE WIND DIRECTION
PRES   - MEAN SEA LEVEL PRESSURE IN INCHES OF MERCURY
         F - FALLING PRESSURE   R - RISING PRESSURE
         S - STEADY PRESSURE
VSB    - VISIBILITY IN MILES
HX     - HEAT INDEX IN FAHRENHEIT
WCI    - WIND CHILL INDEX IN FAHRENHEIT
N/A    - NOT AVAILABLE
AFB    - AIR FORCE BASE
         DAVIS-MONTHAN IS DAVIS-MONTHAN AIR FORCE BASE
CYN    - CANYON
MTNS   - MOUNTAINS
NCA    - NATIONAL CONSERVATION AREA
NR     - NEAR
VLY    - VALLEY
CONTL  - CONTINENTAL
PIMA CO DEQ - PIMA COUNTY DEPT OF ENVIRONMENTAL QUALITY



USA.gov is the U.S. government's official web portal to all federal, state and local government web resources and services.